Regional Weather Roundup
Issued by NWS

Home | Current Version | Previous Version | Text Only | Print | Product List | Glossary Off
Versions: 1 2 3 4 5 6 7 8 9 10 11 12 13 14 15 16 17 18 19 20 21 22 23 24 25 26 27 28 29 30 31 32 33 34 35 36 37 38 39 40 41 42 43 44 45 46 47 48 49 50

000
ASUS43 KIND 020809
RWRIN

WEATHER ROUNDUP FOR INDIANA
NATIONAL WEATHER SERVICE INDIANAPOLIS IN
400 AM EDT MON MAY 02 2016

NOTE: "FAIR" INDICATES FEW OR NO CLOUDS BELOW 12,000 FEET WITH NO
SIGNIFICANT WEATHER AND/OR OBSTRUCTIONS TO VISIBILITY.

* - STATION DOES NOT REPORT WEATHER SUCH AS PRECIPITATION OR FOG.

+ - STATION NOT QUALITY CONTROLLED BY THE NATIONAL WEATHER SERVICE.
    USE DATA WITH CAUTION...ESPECIALLY DEWPOINT AND RELATIVE
    HUMIDITY OBSERVATIONS.

INZ001>003-010>013-019-020-020900-
NORTHWEST INDIANA

CITY           SKY/WX    TMP DP  RH WIND       PRES   REMARKS
GARY /AIRPORT/ CLOUDY    46  46 100 N12       30.00S
KNOX *+        CLOUDY    46  45  93 N10       29.96R
LA PORTE +     CLOUDY    48  48 100 N7        29.98S
MICHIGAN CITY+ CLOUDY    45  45 100 N7        29.99S
MONTICELLO +   DRIZZLE   52  48  88 NW7       29.93S
RENSSELAER +   DRIZZLE   50  48  93 N7        29.96S
VALPARAISO     CLOUDY    47  46  97 N9        29.98S

$$

LMZ046-743>745-020900-
SOUTHERN LAKE MICHIGAN

STATION/POSITION TIME  TEMP    WIND        PRES    WAVE
                       AIR SEA DIR/SP/G            HT
                 (UTC) (F)     (DEG/KT/KT) (MB)    (FT)
BURNS HARBOR     0721   45      30/ 17/ 21 1015.9S
MICHIGAN CITY    0700   45     350/ 16/ 17   N/A

$$

INZ004-005-014>016-021>024-020900-
NORTH CENTRAL INDIANA

CITY           SKY/WX    TMP DP  RH WIND       PRES   REMARKS
GOSHEN         CLOUDY    47  45  93 NE5       29.94S
LOGANSPORT +   CLOUDY    52  50  93 CALM      29.94S
PERU/GRISSOM   CLOUDY    52  52 100 NE5       29.92R
ROCHESTER +    CLOUDY    54  54 100 NW6       29.94R
SOUTH BEND     CLOUDY    45  44  97 N7        29.98R
WARSAW +       CLOUDY    50  46  87 NE3       29.94R

$$

INZ006>009-017-018-025>027-020900-
NORTHEAST INDIANA

CITY           SKY/WX    TMP DP  RH WIND       PRES   REMARKS
ANGOLA *+      CLOUDY    45  36  70 NE7       29.92F
AUBURN +       CLOUDY    48  45  87 NE6       29.91F
FORT WAYNE     CLOUDY    50  48  93 NE8       29.91F
HUNTINGTON +   CLOUDY   N/A N/A N/A E5        29.90F

$$

INZ028-029-035-036-043>045-051>053-020900-
WEST CENTRAL INDIANA

CITY           SKY/WX    TMP DP  RH WIND       PRES   REMARKS
CRAWFORDSVL +  FOG       50  50 100 W12       29.94S VSB 1
GREENCASTLE +  CLOUDY    54  54 100 NW6       29.95R
LAFAYETTE      CLOUDY    50  49  96 W8        29.94R FOG
TERRE HAUTE    CLOUDY    53  49  86 W9        29.97R

$$

INZ030>032-037>040-046>048-054>057-064-065-020900-
CENTRAL INDIANA

CITY           SKY/WX    TMP DP  RH WIND       PRES   REMARKS
CP ATTERBURY + MOCLDY    57  55  94 W6        29.92R
FISHERS *+     CLOUDY    55  55 100 NW3       29.91R
FRANKFORT +      N/A     55  55 100 CALM      29.94S FOG
GREENWOOD *+   MOCLDY    57  55  94 W7        29.92R
INDIANAPOLIS   MOCLDY    57  54  89 W8        29.90R
-EAGLE CREEK   CLOUDY    58  55  90 W9        29.91R
KOKOMO *+      CLOUDY    54  48  82 CALM      29.92R
MARION +       CLOUDY    51  50  95 E7        29.91S
SHELBYVILLE    CLOUDY    61  57  87 W7        29.90R
ZIONSVILLE +   CLOUDY    55  54  94 CALM      29.92R

$$

INZ033-034-041-042-049-050-058-059-020900-
EAST CENTRAL INDIANA

CITY           SKY/WX    TMP DP  RH WIND       PRES   REMARKS
MUNCIE         CLOUDY    55  52  89 NE3       29.90S

$$

INZ060-061-067>069-081>083-085>088-020900-
SOUTHWEST INDIANA

CITY           SKY/WX    TMP DP  RH WIND       PRES   REMARKS
EVANSVILLE     PTCLDY    57  51  80 W5        29.99S
HUNTINGBURG *+ PTCLDY    55  52  88 W5        29.97S
WASHINGTON +   PTCLDY    57  56  96 NW12      29.97S

$$

INZ062-063-066-070>080-084-089>092-020900-
SOUTH CENTRAL AND SOUTHEAST INDIANA

CITY           SKY/WX    TMP DP  RH WIND       PRES   REMARKS
BEDFORD +      PTCLDY    57  57 100 W8        29.94R
BLOOMINGTON    MOCLDY    57  53  86 W7        29.94R
MADISON *+     PTCLDY    59  57  94 W6        29.95R
NORTH VERNON + CLOUDY   N/A N/A N/A CALM      29.93R
SEYMOUR +      PTCLDY    61  57  88 CALM      29.93S

$$





USA.gov is the U.S. government's official web portal to all federal, state and local government web resources and services.